Location: Newark
(25.4800°N, 85.7200°E)
Time: 04:56:41
(UTC+00:00)

Vanguard 1 Rocket - Pass Details

Date: 27 August 2019
Orbit: 652 x 4225 km, 34.3° (Epoch: 15 September)

Event Time Altitude Azimuth Distance (km) Brightness Sun altitude
Rises 20:01:26 0° 279° (W) 3,176 - -46.6°
Reaches altitude 10° 20:04:10 10° 291° (WNW) 2,104 - -46.2°
Maximum altitude 20:08:08 30° 354° (N) 1,166 - -45.7°
Drops below altitude 10° 20:12:18 10° 57° (ENE) 2,210 - -45.1°
Exits shadow 20:12:48 - 59° (ENE) 2,398 10.1 -45.0°
Sets 20:15:15 0° 68° (ENE) 3,371 11.0 -44.6°
